Regional Weather Roundup
Issued by NWS

Home | Current Version | Previous Version | Graphics & Text | Print | Product List | Glossary On
Versions: 1 2 3 4 5 6 7 8 9 10 11 12 13 14 15 16 17 18 19 20 21 22 23 24 25 26 27 28 29 30 31 32 33 34 35 36 37 38 39 40 41 42 43 44 45 46 47 48 49 50
029
ASUS43 KLMK 190910
RWRKY
KENTUCKY REGIONAL WEATHER ROUNDUP
NATIONAL WEATHER SERVICE LOUISVILLE KY
500 AM EDT TUE SEP 19 2017

NOTE "FAIR" INDICATES FEW OR NO CLOUDS BELOW 12,000 FEET
WITH NO SIGNIFICANT WEATHER AND/OR OBSTRUCTIONS TO VISIBILITY.

KYZ001>023-026-027-061>063-070>075-191000-
WESTERN AND SOUTH CENTRAL KENTUCKY

CITY           SKY/WX    TMP DP  RH WIND       PRES   REMARKS
PADUCAH        CLEAR     69  67  93 CALM      29.92F FOG
HENDERSON      CLOUDY    68  67  96 E5        29.93R
OWENSBORO      LGT RAIN  70  68  94 SE12      29.92F VSB 3/4
HOPKINSVILLE   CLOUDY    70  68  92 SE5       29.94F
BOWLING GREEN  FOG       66  66 100 CALM      29.96S VSB 1/2
GLASGOW        PTCLDY   N/A N/A N/A CALM      29.96F FOG
$$

KYZ024-025-028>034-038-045-046-053-191000-
NORTH CENTRAL KENTUCKY

CITY           SKY/WX    TMP DP  RH WIND       PRES   REMARKS
LOUISVILLE/SDF CLOUDY    73  69  87 E6        29.94F
LOUISVILLE/LOU CLOUDY    73  71  93 E3        29.95F
FORT KNOX      CLOUDY    69  68  97 E5        29.94F
$$

KYZ035>037-039>044-047>052-055>060-089>105-191000-
NORTHEAST KENTUCKY

CITY           SKY/WX    TMP DP  RH WIND       PRES   REMARKS
LEXINGTON      CLOUDY    70  65  84 S5        29.99F
COVINGTON      CLOUDY    70  67  90 SE6       29.97S
FRANKFORT      CLOUDY    70  66  87 SE3       29.97R
$$

KYZ054-064>069-076>088-106>120-191000-
SOUTHEAST KENTUCKY

CITY           SKY/WX    TMP DP  RH WIND       PRES   REMARKS
JACKSON        CLOUDY    65  61  87 CALM      30.01F
LONDON         CLOUDY    66  63  90 CALM      30.01S
SOMERSET       CLOUDY    63  63 100 CALM      30.01S FOG
MIDDLESBORO    FOG       62  62 100 CALM      30.03S VSB 3/4
MONTICELLO     PTSUNNY   60  59  96 W7        30.01S FOG
$$





USA.gov is the U.S. government's official web portal to all federal, state and local government web resources and services.